Current weather by "City, St" or "zip code"  
 

Current Conditions: Pottstown, Pottstown Limerick Airport, PA

Light Freezing Rain Fog/Mist


30.0 F

Last Updated on Feb 20 2019, 7:54 pm EST
Humidity: 96%
Wind Speed: NE 4.6 mph
Barometer 30.25 in
Dewpoint: 28.9 F
Visibility: 2.50 mi
Precip: 00.02 in
Heat Index: NA
Wind Chill: 25 F
Current conditions at:

Pottstown, Pottstown Limerick Airport, PA (KPTW)

Lat: 40.23 Lon: 75.554

Local Radar Image active severe weather and emergency alerts image image weather storm and storm spotter reports image weather observation monitoring service image
Local
Radar
Active
Alerts
Storm Reports Obs
Monitoring

iAlert Weather and Emergency Alert Notification Services:


ialert severe weather and emergency alerts by text message and email ialert daily weather forecast by email and text message service ialert real-time weather-observation monitoring and alert notification service ialert storm report monitoring alert notification

Observation History for Pottstown, Pottstown Limerick Airport, PA


Time Wind
(mph)
Vis
(mi)
Weather Precip (in) Temperature (F) Relative
Humidity
Wind
Chill
(°F)
Heat
Index
(°F)
Pressure
Air Dwpt altimeter
(in)
sea level
(mb)
7:54 pm EST NE 4.6 2.50 Light Freezing Rain Fog/Mist 00.02 30.0 28.9 96% 25 NA 30.25 1024.4
6:54 pm EST 3.5 2.00 Light Freezing Rain Fog/Mist 00.02 29.0 28.9 100% NA NA 30.28 1025.4
5:54 pm EST 5.8 2.50 Light Freezing Rain Fog/Mist 00.04 28.0 27.0 96% 22 NA 30.30 1026.3
4:54 pm EST NE 4.6 1.25 Light Freezing Rain Fog/Mist 00.03 28.0 27.0 96% 23 NA 30.35 1027.9
3:54 pm EST E 4.6 1.50 Light Freezing Rain Fog/Mist 00.05 27.0 26.1 96% 22 NA 30.37 1028.6
2:54 pm EST E 5.8 1.00 Unknown Precip Fog/Mist 00.05 27.0 25.0 92% 20 NA 30.41 1029.8
1:54 pm EST E 5.8 0.75 Light Snow Fog/Mist 00.03 26.0 24.1 92% 19 NA 30.42 1030.2
12:54 pm EST E 5.8 0.75 Light Snow Fog/Mist 00.04 25.0 23.0 92% 18 NA 30.46 1031.5
11:54 am EST E 6.9 0.25 Snow Freezing Fog 00.11 24.0 23.0 96% 16 NA 30.52 1033.6
10:54 am EST 5.8 0.50 Snow Freezing Fog 00.01 24.0 21.9 91% 17 NA 30.57 1035.4
9:54 am EST 5.8 1.75 Light Snow Trace 26.0 16.0 66% 19 NA 30.59 1036.1
8:54 am EST 3.5 10.00 Overcast -- 28.0 12.0 51% NA NA 30.59 1035.9
7:54 am EST N 0.0 10.00 Overcast -- 27.0 12.0 53% NA NA 30.58 1035.8
6:54 am EST N 0.0 10.00 Overcast -- 27.0 12.9 55% NA NA 30.56 1035.0
5:54 am EST E 4.6 10.00 A Few Clouds -- 27.0 12.9 55% 22 NA 30.55 1034.6
4:54 am EST E 3.5 10.00 Fair -- 27.0 12.9 55% NA NA 30.57 1035.4
3:54 am EST N 0.0 10.00 Fair -- 26.0 15.1 63% NA NA 30.59 1036.0
2:54 am EST NE 3.5 10.00 Fair -- 26.0 16.0 66% NA NA 30.61 1036.7
1:54 am EST N 0.0 10.00 Fair -- 26.0 14.0 60% NA NA 30.62 1036.9
12:54 am EST N 0.0 10.00 Fair -- 26.0 14.0 60% NA NA 30.60 1036.3
11:54 pm EST N 0.0 10.00 Fair -- 28.0 10.0 47% NA NA 30.59 1036.1
10:54 pm EST N 3.5 10.00 Fair -- 28.0 9.0 44% NA NA 30.60 1036.3
9:54 pm EST N 3.5 10.00 Fair -- 28.0 8.1 43% NA NA 30.60 1036.5
8:54 pm EST N 0.0 10.00 Fair -- 29.0 8.1 41% NA NA 30.61 1036.8

Regional Weather Observation


Pottstown, Pottstown Limerick Airport, PA (KPTW)

Light Freezing Rain Fog/Mist
30.0 F

Allentown Queen City Municipal Airport, PA (KXLL)

NULL
59.0 F

Quakertown Airport, PA (KUKT)

Fog/Mist
30.0 F

Allentown, Lehigh Valley International Airport, PA (KABE)

Light Freezing Rain Fog/Mist
31.0 F

Doylestown, Doylestown Airport, PA (KDYL)

Unknown Precip Fog/Mist
31.0 F

Philadelphia, Northeast Philadelphia Airport, PA (KPNE)

Light Freezing Rain Fog/Mist
35.0 F

Advertise Here


Advertise Here